STARLINK-34638

Last updated on Fri Aug 08 2025 00:02:05 GMT+0000 (Coordinated Universal Time)

1 64762U 25147H 25218.91668981 .00009444 00000+0 24601-3 0 9996 2 64762 53.1603 163.3220 0001173 77.7201 52.1373 15.39592463 5933
UTC large
Height (km)
Speed (km/s)
/
Latitude / Longitude
Inclination (degrees)
Orbital Period (minutes)
Azimuth
Elevation
Range (km)
Doppler Factor

Next 0 passes for location: London (51.5072 / 0.1276)

Sorry there are no passes over London.